Wind_Gust
8 9 9 12 13 12 7 9 12 15 10 9 5 2 7 12 17 7 13 11 14 13 9 13 9 10 12 9 11 8 10 10 12 4 12 12 12 12 12 12 14 14 16 11 12 12 12 13 15 15 16 17 16 18 19 18 17 18 19 18 16 17 17 16 18 14 13 16 12 6 9 11 8 8 7 8 9 9 9 10 10 10 10 10 10 10
9 9 14 14 14 13 12 10 10 11 8 9 6 4 13 14 16 13 14 12 6 13 4 6 10 5 10 12 9 5 2 4 9 17 9 16 17 19 16 14 16 12 9 12 11 12 14 16 16 16 17 19 22 19 19 19 17 16 16 18 17 17 16 16 19 16 12 8 10 8 10 9 11 6 6 8 9 9 9 10 11 11 11 11 11 11
8 17 19 16 13 10 10 10 9 9 11 9 9 8 5 17 7 15 9 10 7 9 8 3 10 6 8 6 6 11 4 4 7 21 22 21 15 15 15 17 14 11 13 13 12 12 16 17 18 16 17 18 19 17 16 15 16 16 16 16 17 17 16 15 15 15 12 9 10 11 13 14 14 8 10 8 5 6 9 9 11 11 12 12 12 12
8 15 20 16 10 9 10 11 8 8 6 9 3 3 11 11 4 13 9 13 15 8 5 6 8 7 11 8 9 11 9 6 5 7 18 22 24 22 22 20 19 16 18 19 19 20 19 20 19 16 16 17 15 17 15 16 18 16 15 14 16 17 16 18 16 12 6 9 10 9 11 11 10 11 9 7 9 7 7 10 11 11 11 12 12 12
22 17 13 11 13 12 12 11 7 6 12 7 9 7 8 6 5 8 11 8 8 11 5 9 10 10 7 10 14 12 8 18 17 19 6 8 15 20 23 16 19 23 21 19 17 18 21 22 22 21 19 18 18 17 18 17 17 17 18 16 17 17 18 17 17 12 10 17 15 9 8 8 9 4 4 7 10 12 11 10 10 14 10 11 10 11
18 17 5 14 15 13 12 12 14 11 10 6 8 12 9 6 5 7 5 10 16 12 7 9 5 9 11 12 12 13 20 24 20 22 20 12 5 7 4 3 3 11 6 21 25 24 22 20 16 15 16 14 13 17 18 17 17 16 15 17 16 15 16 17 16 15 15 17 18 16 17 15 10 12 11 16 17 15 15 16 10 8 10 9 9 10
21 7 12 15 17 16 15 16 10 12 12 9 12 8 5 6 8 5 10 7 4 5 7 4 9 7 11 9 9 12 17 16 18 19 16 14 18 14 7 11 12 15 13 12 9 12 15 15 16 14 15 15 13 12 13 11 12 13 14 16 16 16 16 17 16 15 17 17 18 19 19 18 19 19 16 11 10 11 10 9 10 10 9 9 11 10
14 10 12 15 16 18 13 15 11 16 14 12 8 5 1 2 7 12 9 7 8 7 6 10 10 9 6 10 6 10 21 18 21 22 23 23 20 17 16 7 10 16 13 16 16 16 15 17 21 19 14 15 15 13 15 16 16 17 16 15 15 15 17 15 18 17 17 18 19 17 16 18 18 17 19 15 10 9 8 11 11 9 10 10 10 12
9 13 13 11 13 15 17 19 9 14 18 12 7 8 6 6 5 13 11 8 5 9 11 14 5 10 5 9 12 10 22 19 20 17 19 21 22 19 20 21 11 14 15 17 17 15 15 15 11 8 8 10 8 7 16 18 18 19 21 22 19 18 18 17 17 18 18 16 18 19 17 18 16 18 17 12 11 11 11 10 11 11 11 10 9 10
12 14 16 16 15 17 16 14 16 15 9 9 6 5 5 3 5 2 3 8 7 9 9 7 6 7 8 14 16 9 15 15 14 13 14 18 19 21 23 21 20 18 17 16 17 20 17 14 11 8 8 9 6 5 12 16 19 21 25 27 26 22 21 20 19 19 20 17 15 17 18 20 15 13 14 13 14 14 12 13 13 11 10 10 9 9
17 8 5 11 16 20 15 10 12 10 10 3 6 5 5 6 5 4 8 6 9 6 8 6 4 10 7 12 11 13 9 5 7 12 15 18 20 21 21 21 21 19 18 17 16 16 13 11 13 11 9 8 18 9 15 18 20 22 25 26 25 23 22 22 23 21 22 19 18 18 16 16 15 15 15 14 13 13 12 13 13 11 11 10 10 9
10 11 13 11 10 8 8 10 6 10 4 8 8 11 5 9 11 9 7 11 7 8 11 8 5 7 7 3 10 9 10 13 14 17 16 17 19 20 18 20 20 18 17 17 17 16 16 18 18 16 15 18 20 19 14 15 19 17 17 22 23 21 21 22 22 21 21 19 18 14 14 16 16 17 17 19 18 16 15 13 13 10 8 8 9 9
8 12 8 7 5 14 9 10 9 8 7 6 11 11 13 8 8 13 7 8 7 12 9 4 4 11 14 5 5 14 15 18 18 17 16 16 18 18 19 19 17 17 18 19 16 15 16 15 15 15 18 17 14 17 22 19 9 20 15 16 22 23 20 20 18 19 18 18 18 18 15 14 13 16 18 19 18 16 17 15 13 12 14 12 12 11
14 7 6 7 5 7 14 17 6 7 3 9 10 11 12 9 7 8 7 8 6 12 9 4 6 13 9 9 7 15 15 17 17 16 13 15 17 19 21 20 21 20 19 17 15 14 14 14 12 13 15 15 12 15 16 16 22 23 16 16 20 22 19 17 16 14 13 16 17 16 16 15 13 13 15 16 18 17 16 14 14 13 17 18 18 13
5 10 14 6 10 5 13 15 17 12 9 12 8 15 14 15 16 12 11 11 11 14 10 6 6 14 11 5 11 13 14 15 16 15 13 16 17 17 18 22 25 24 22 21 20 20 18 15 10 9 11 15 10 13 15 20 23 16 11 14 14 15 17 16 15 13 12 12 10 10 9 10 10 7 9 12 13 14 13 12 12 11 12 15 13 13
10 16 13 12 7 11 14 9 12 10 5 6 6 13 11 14 15 9 15 12 6 6 4 6 7 2 17 10 9 10 14 16 14 16 18 19 17 18 24 24 22 22 23 24 25 27 27 22 15 12 5 6 9 7 5 9 14 16 14 16 17 15 12 10 10 12 12 9 8 7 8 9 9 12 15 11 12 10 13 14 14 13 13 11 11 9
5 9 9 8 7 14 11 10 7 12 17 11 8 9 21 13 16 10 5 4 9 8 11 10 9 10 8 7 14 13 16 15 13 17 19 19 18 19 20 19 19 20 21 22 22 22 22 23 22 16 12 5 7 6 6 4 7 11 12 12 15 16 14 8 9 7 9 12 8 6 5 6 7 11 13 13 12 11 11 12 13 15 14 12 14 13
12 13 8 7 5 12 8 15 10 13 15 13 12 18 5 7 11 18 15 6 8 11 12 6 12 11 6 10 6 12 13 11 14 17 19 17 16 20 18 17 18 18 16 16 17 16 18 20 23 22 19 13 9 5 7 9 10 7 10 10 10 6 11 6 10 13 17 19 16 10 9 7 6 7 8 9 10 11 13 13 14 13 15 15 14 14
8 10 11 5 7 8 6 9 6 5 6 15 15 6 14 11 10 9 14 7 7 9 9 8 3 7 3 7 10 14 15 13 15 17 20 21 20 18 17 19 19 17 18 18 18 20 21 21 22 23 21 19 14 10 6 7 12 5 8 5 8 12 8 9 11 12 18 22 20 16 12 9 7 8 8 8 9 9 13 16 17 17 19 14 13 15
6 10 11 8 3 5 11 13 14 12 6 7 4 6 4 13 9 8 18 12 16 8 7 4 6 8 5 7 9 11 11 9 14 16 16 17 15 15 14 15 18 18 19 17 18 19 20 20 20 21 22 23 21 18 16 12 7 10 7 7 11 12 7 9 14 18 20 15 12 11 10 9 9 7 8 11 11 14 17 19 19 20 17 18 15 14
10 6 8 11 8 7 10 13 14 14 11 6 6 10 10 9 8 13 6 12 13 15 12 15 7 7 4 5 8 9 9 13 14 15 14 14 15 18 19 18 19 21 21 20 15 15 15 17 20 21 21 20 19 19 18 16 14 10 9 10 9 7 5 7 11 10 6 8 10 12 14 14 12 12 14 17 14 16 13 12 13 17 19 17 17 16
11 7 14 9 12 21 23 19 16 14 11 7 12 7 8 2 6 8 12 8 7 12 12 15 9 5 4 6 11 12 12 14 14 14 17 18 18 18 19 19 20 20 18 17 14 15 16 14 17 20 20 19 20 20 20 18 16 16 14 10 4 5 7 8 8 3 8 11 14 15 15 14 12 13 13 14 16 18 10 13 14 15 18 18 16 16
8 10 10 4 8 16 25 19 17 17 27 23 18 9 3 4 10 11 9 8 11 8 10 9 18 4 5 6 11 16 16 18 17 15 17 18 18 18 19 17 15 15 15 16 18 21 24 25 23 18 19 19 19 20 20 20 19 16 15 17 15 10 8 10 10 7 7 7 9 13 14 15 13 12 13 14 13 17 10 15 15 16 20 18 16 14
9 12 10 6 6 8 15 20 26 20 11 16 16 13 12 9 3 7 10 9 12 5 9 7 10 9 6 9 15 18 17 17 19 18 17 17 17 19 17 15 14 15 15 18 22 23 24 23 25 25 25 26 24 21 20 18 18 18 17 18 18 16 17 15 12 10 8 8 8 8 9 13 13 15 15 13 14 19 10 11 14 17 19 17 16 16
11 6 12 8 10 11 10 11 15 14 21 14 6 10 7 6 4 2 6 6 12 4 7 15 12 11 9 12 16 16 18 19 20 18 17 17 17 17 17 16 17 15 17 21 24 24 24 26 27 26 26 25 25 23 22 22 21 18 18 19 19 18 17 15 16 12 7 7 8 9 10 9 12 14 13 11 11 17 10 8 12 14 18 17 16 13
16 3 7 12 14 13 12 13 8 7 5 5 6 14 13 11 7 4 3 6 9 5 8 13 12 7 14 14 17 17 17 18 17 16 15 15 15 17 17 17 19 22 25 23 22 23 24 23 23 24 23 23 24 23 22 21 22 21 20 19 17 18 20 18 15 10 10 14 14 11 10 9 10 13 11 8 11 18 18 11 9 9 13 17 14 12
9 7 9 9 11 11 8 7 4 9 8 15 5 16 13 8 9 9 11 10 9 5 10 6 16 19 15 14 15 15 18 17 16 17 18 17 17 17 16 18 19 21 22 22 20 21 21 24 25 24 24 24 22 22 21 21 22 22 21 20 20 17 17 16 14 11 8 9 14 10 8 8 14 17 11 11 14 17 14 11 10 11 14 17 16 15
11 14 9 16 17 8 5 7 5 10 19 11 12 11 16 17 9 11 8 7 7 17 10 5 11 14 12 14 13 14 14 14 14 14 14 16 17 17 17 17 17 20 20 20 20 21 21 20 22 24 24 24 24 24 23 22 23 22 21 21 21 22 20 17 14 15 11 13 15 14 7 7 8 12 14 14 14 15 10 9 11 10 9 12 13 14
13 10 3 11 15 20 12 13 18 21 16 16 18 16 18 14 20 17 8 3 4 6 19 15 16 14 13 13 13 13 14 14 13 13 13 13 15 16 18 20 20 20 19 19 19 19 19 19 18 20 22 22 23 24 23 22 23 22 21 20 19 19 20 20 18 17 11 12 14 12 9 10 7 6 14 15 10 12 11 11 12 12 14 14 13 12
19 9 6 14 20 19 16 14 15 22 19 24 19 17 16 19 17 17 18 17 18 16 19 23 21 17 12 11 13 12 12 12 12 11 13 17 17 16 16 18 20 19 19 19 18 18 17 18 19 18 19 20 21 22 23 22 23 23 22 22 21 20 21 20 17 17 17 14 14 14 11 11 13 10 12 17 16 12 10 9 14 15 14 13 16 16
14 8 6 6 15 17 14 13 15 19 23 24 19 16 13 12 18 18 18 16 17 20 18 20 19 16 11 10 12 10 11 12 14 17 18 16 15 16 16 17 19 18 18 17 17 18 18 18 19 20 20 20 19 19 20 20 20 20 21 22 21 20 20 19 18 17 16 20 19 15 14 15 19 14 10 17 18 13 11 10 11 11 13 17 19 19
12 12 8 12 14 8 7 16 16 21 23 23 20 18 15 12 15 14 16 10 8 15 14 16 13 11 8 9 11 12 14 17 16 16 16 16 15 15 16 16 16 16 17 18 17 17 19 19 20 20 20 20 21 20 20 19 18 18 21 20 21 21 20 19 19 18 17 16 20 18 14 11 18 18 18 16 16 14 11 12 16 15 16 19 20 17
8 17 14 11 14 10 12 6 15 9 10 12 12 12 16 16 14 13 17 19 15 7 7 8 9 8 8 7 13 13 14 14 15 16 13 14 14 14 15 15 14 15 15 15 17 18 18 17 17 18 19 18 19 19 18 17 17 19 18 18 17 18 18 18 19 21 21 20 19 22 22 12 14 20 18 17 16 16 14 16 15 16 19 19 19 18
7 12 14 10 13 13 14 10 6 10 9 5 7 9 4 8 12 19 13 15 16 14 11 10 13 10 9 10 13 13 14 16 16 15 15 14 12 13 12 11 12 13 13 14 14 14 13 14 15 16 15 15 15 15 14 15 16 15 14 16 16 18 19 18 21 21 23 22 22 21 23 19 16 14 17 18 17 17 17 16 16 12 17 20 20 23
7 7 6 7 16 15 9 3 10 6 5 4 4 14 16 15 20 23 19 17 14 14 15 14 12 11 11 12 14 14 16 17 16 18 17 14 12 11 11 12 13 13 14 13 14 14 12 12 13 15 15 16 15 15 14 17 16 14 18 19 19 20 20 21 20 23 23 23 22 23 24 21 19 15 15 17 19 20 18 17 14 16 14 17 20 22
4 7 5 11 13 12 9 5 12 7 9 8 7 8 12 15 11 17 17 15 13 11 10 13 13 14 14 13 11 13 17 16 17 16 13 12 12 10 11 11 11 13 14 13 12 13 14 14 13 12 12 12 13 14 15 15 14 16 17 15 19 19 20 19 22 22 22 24 24 24 23 23 21 20 15 17 19 19 18 17 16 18 17 20 20 18
9 7 12 12 8 18 7 7 11 14 10 4 5 4 5 2 3 4 11 8 10 9 7 10 13 12 13 15 15 14 13 13 18 16 13 11 9 9 10 10 11 12 11 12 12 13 11 11 12 12 11 11 12 14 15 14 14 14 15 19 19 18 19 21 23 22 21 21 22 23 23 24 23 23 15 17 20 19 17 17 14 16 18 22 19 19
6 4 6 14 6 11 20 13 13 6 11 8 5 2 4 5 1 3 10 8 7 10 8 8 10 13 13 13 12 12 6 15 15 14 12 12 12 10 9 8 9 10 11 10 10 10 10 9 10 11 11 11 13 13 12 12 13 13 17 17 16 18 18 21 22 20 20 20 19 20 21 23 24 20 19 20 20 19 18 16 16 14 11 20 21 20
11 13 10 15 13 9 10 15 12 13 7 4 3 6 8 10 5 3 4 7 4 6 6 8 9 7 6 9 8 7 7 7 7 6 10 8 9 10 11 12 11 9 9 10 9 10 9 9 8 10 11 12 15 14 12 12 13 17 18 17 17 16 19 19 18 18 19 17 17 18 19 21 23 21 18 22 20 19 21 17 17 14 14 17 18 19
15 10 10 14 9 6 10 10 9 6 10 3 5 7 9 10 2 2 6 8 5 5 7 7 8 6 4 2 2 8 10 15 13 10 6 6 6 9 11 11 11 11 11 9 9 7 7 7 10 12 14 15 14 11 13 11 15 17 17 16 15 19 19 17 15 14 14 15 15 15 20 20 23 22 22 21 20 20 20 16 17 16 14 16 17 18
10 10 12 7 7 9 12 10 10 5 3 1 5 9 8 5 4 7 7 6 4 7 10 9 9 8 7 9 6 14 12 13 12 8 6 7 10 12 11 11 11 10 11 11 11 7 8 10 10 12 12 11 11 11 11 12 15 17 16 15 18 20 17 15 13 12 13 14 15 17 19 20 21 23 23 21 19 19 20 18 17 15 15 14 16 19
8 5 5 8 10 8 5 11 7 6 2 3 6 6 4 7 10 7 8 7 11 12 10 11 13 12 14 15 16 18 16 13 12 10 11 10 10 8 10 11 12 12 12 11 12 12 10 10 10 11 11 10 11 10 11 12 15 15 15 16 19 16 14 15 14 13 13 16 17 18 19 20 20 19 18 19 20 20 19 16 15 14 15 14 11 18
5 8 5 6 6 7 8 12 7 9 5 7 9 4 5 5 5 11 14 11 10 11 10 10 12 12 13 18 15 16 15 12 12 11 10 9 8 8 8 9 10 11 12 13 14 14 13 11 12 12 10 11 9 9 9 11 14 13 14 18 14 12 13 14 14 15 14 15 15 16 17 17 18 19 19 19 18 18 17 16 17 16 13 12 10 16
2 10 8 5 4 12 8 9 9 3 8 9 5 8 5 13 15 12 15 16 10 10 9 12 12 12 12 15 15 13 12 12 10 8 9 7 6 7 7 8 8 10 11 11 11 11 11 12 12 11 10 10 9 8 8 9 11 11 13 14 11 12 13 13 13 14 17 17 17 18 16 15 14 14 14 14 14 15 16 17 16 15 13 10 9 10
11 4 5 14 6 8 10 11 8 6 12 16 19 17 15 15 13 12 12 13 13 12 9 13 13 11 11 12 12 11 11 8 8 5 7 6 6 6 6 7 7 7 8 8 10 10 10 12 12 12 12 11 11 11 7 6 8 8 9 8 8 10 11 12 12 13 13 14 14 14 13 15 17 17 17 17 17 17 15 14 14 15 14 13 14 13
7 16 11 28 23 24 22 14 14 15 17 18 17 17 19 16 13 13 12 15 10 10 9 12 12 11 10 8 13 9 9 7 8 7 6 5 5 4 4 4 6 5 5 6 7 9 8 9 10 11 12 14 13 12 10 9 6 6 5 6 7 7 7 7 10 11 11 12 12 13 12 13 13 13 13 14 15 15 14 13 13 14 14 14 14 14
7 6 7 26 15 11 20 6 16 17 15 17 18 16 15 14 16 14 15 14 14 13 13 11 13 12 11 10 10 10 9 9 9 7 6 4 3 3 2 2 1 2 2 4 4 5 7 7 10 11 11 12 13 12 11 10 10 5 5 6 6 6 6 7 7 8 9 9 9 9 11 12 12 13 14 13 13 13 13 13 11 12 13 12 12 13
9 5 20 9 11 15 22 14 13 12 13 14 16 18 17 16 16 13 13 13 14 14 13 13 11 10 8 10 9 9 8 7 8 6 5 5 5 4 2 2 2 2 3 2 3 4 4 7 7 8 10 11 12 11 12 11 10 11 8 4 5 7 7 8 7 7 7 8 6 7 7 8 8 10 11 12 14 14 13 12 11 15 14 12 10 10
13 7 12 9 24 18 19 15 13 13 13 11 9 8 12 14 15 12 11 11 11 12 10 9 11 13 10 10 7 7 6 4 6 5 4 4 2 1 2 4 4 4 3 2 3 3 2 2 5 7 8 10 9 10 11 11 10 11 11 8 5 3 6 8 9 9 9 8 8 8 3 6 6 7 9 9 12 12 11 10 9 11 11 10 8 6
17 20 17 21 31 19 15 20 17 23 15 8 9 13 12 11 13 13 11 11 9 10 9 8 5 4 7 7 8 7 8 5 4 5 5 5 4 3 2 2 4 4 5 5 4 4 4 3 2 4 5 7 7 8 8 9 9 9 9 9 6 6 5 7 7 9 11 10 9 7 4 2 4 5 6 7 9 11 12 8 11 8 11 10 9 12
16 19 13 15 18 20 18 20 6 13 17 15 15 11 12 11 12 14 14 13 10 11 10 11 8 4 4 4 6 8 6 7 7 5 5 5 6 7 6 5 4 4 5 6 5 6 5 6 4 4 5 6 6 7 6 6 7 8 9 6 5 3 4 7 8 8 9 11 11 10 8 7 4 6 7 7 7 7 10 9 11 11 12 9 9 11
Wind_Speed
3 3 4 7 7 6 4 6 8 9 5 3 1 1 5 7 7 4 8 7 5 5 6 8 6 6 8 5 5 5 2 7 8 2 2 5 7 6 7 7 7 8 9 7 8 8 8 8 9 9 9 9 9 10 11 11 10 10 11 11 11 10 10 8 6 2 7 6 4 2 4 5 5 3 3 5 5 5 5 6 6 6 6 6 6 5
4 4 8 9 9 9 8 6 5 5 4 4 3 2 8 9 8 7 6 8 3 5 2 5 7 4 4 8 4 4 1 1 7 10 7 8 10 12 11 9 10 7 3 6 7 8 9 10 11 10 9 10 12 9 10 11 11 10 10 11 10 9 9 9 10 9 6 4 5 4 5 4 4 2 1 1 3 5 4 6 6 6 7 7 7 6
3 8 11 11 8 6 6 5 6 6 5 4 4 3 3 9 3 9 3 6 4 4 2 1 5 4 5 4 3 5 1 1 4 14 14 13 10 8 9 10 8 6 7 7 7 8 10 12 12 10 9 8 9 10 10 10 10 10 9 10 10 8 9 8 9 7 4 4 5 3 3 7 6 4 5 1 2 2 5 6 7 6 7 7 7 7
3 8 14 9 5 6 5 6 5 3 2 4 1 1 5 5 1 5 4 8 9 2 2 4 5 3 6 5 6 5 4 1 4 1 9 14 15 13 13 12 10 9 11 11 10 11 11 12 12 9 9 10 9 10 9 9 11 9 8 9 10 9 9 9 9 8 3 5 5 3 2 3 3 4 4 4 4 4 4 5 6 6 6 7 7 7
11 7 6 7 7 7 7 6 3 3 6 4 5 3 5 2 3 4 4 4 5 4 3 5 5 3 3 6 8 7 6 12 11 10 3 1 3 4 3 2 4 12 13 11 7 8 11 13 13 13 11 8 8 8 9 8 9 7 11 10 10 10 10 9 9 7 6 9 5 2 5 3 3 2 2 3 5 6 6 6 6 7 5 7 6 6
10 10 3 6 7 6 5 6 6 6 5 3 5 9 6 4 3 4 1 6 7 5 2 5 1 2 5 7 6 6 10 15 11 14 12 7 1 5 4 4 2 6 3 4 10 11 10 9 8 8 8 8 8 9 7 6 7 7 8 10 10 9 9 10 10 9 9 10 9 8 7 6 4 5 6 8 9 8 8 8 6 5 6 5 5 6
9 2 6 6 8 8 7 7 5 8 7 5 5 6 4 3 1 2 4 4 2 1 2 2 4 1 4 4 4 5 11 11 11 12 10 9 11 10 3 4 7 8 8 7 5 7 9 9 9 8 10 9 8 7 7 7 7 8 8 9 10 10 8 9 9 10 9 10 10 11 11 10 10 9 7 5 6 6 4 4 5 5 5 5 6 5
4 5 7 7 6 9 6 7 4 10 7 4 3 4 0 1 2 4 0 4 2 1 2 6 3 3 1 3 4 7 14 12 14 13 13 12 13 11 10 5 5 7 7 9 9 9 7 7 6 6 3 1 3 6 8 9 10 12 11 10 10 9 10 8 8 9 10 11 10 10 10 9 8 9 10 8 6 5 3 4 6 5 5 6 6 6
4 5 7 7 7 6 8 10 6 9 7 4 4 6 3 4 3 4 2 3 2 3 5 5 2 3 1 3 6 7 14 12 13 11 13 14 15 13 13 13 7 3 3 4 5 5 4 2 6 5 3 4 4 1 8 9 11 12 14 14 13 11 11 10 11 10 9 9 11 11 9 8 8 8 7 6 6 6 6 6 5 6 6 5 6 6
2 8 10 10 8 8 9 9 9 10 4 5 4 3 2 1 0 1 1 5 1 2 2 3 1 2 1 8 8 5 9 8 6 8 10 12 13 14 14 14 12 11 10 11 11 11 9 7 5 4 4 4 1 3 8 10 10 11 12 16 17 15 12 12 13 12 13 11 9 10 11 13 9 6 4 5 7 8 7 8 8 6 6 6 5 5
8 4 4 4 7 9 9 6 7 7 6 2 2 1 1 4 2 2 5 3 3 1 3 2 2 5 2 6 6 6 3 2 3 5 9 11 12 13 13 13 13 12 11 10 11 10 9 7 6 6 6 6 9 5 9 10 9 8 7 7 11 13 11 12 13 13 14 11 10 10 10 11 10 9 7 6 6 7 7 8 7 7 7 6 6 5
4 4 4 3 7 3 5 3 1 6 3 5 2 3 1 4 5 4 3 6 2 2 5 5 2 4 3 1 6 5 6 6 7 11 10 10 11 11 11 11 12 12 11 10 11 10 10 12 11 10 10 10 10 11 8 2 1 3 5 7 9 11 12 11 11 10 10 10 10 8 9 10 10 9 9 10 9 9 9 8 8 5 3 1 2 4
4 5 3 4 2 9 3 5 3 5 4 4 6 6 5 2 1 3 2 1 2 4 3 0 2 6 7 2 3 8 8 10 9 9 9 10 12 12 11 12 10 10 12 11 10 10 9 9 8 9 8 6 3 6 11 9 4 12 8 9 12 12 12 12 9 9 7 7 9 9 9 8 7 8 8 9 9 9 9 8 7 7 7 6 6 6
6 3 2 4 3 1 8 7 1 2 1 6 5 5 5 2 1 1 1 1 2 5 5 2 3 5 4 4 5 9 8 8 9 8 8 10 10 11 11 10 11 12 12 10 9 9 8 8 7 6 7 7 5 7 9 6 14 10 1 3 8 9 8 10 10 9 7 7 7 7 7 8 6 6 5 7 8 8 7 7 7 8 9 9 10 7
1 4 5 2 2 3 5 7 9 5 5 6 4 8 7 6 4 2 2 3 5 6 4 4 1 4 6 2 7 8 7 8 7 8 8 10 11 9 11 14 16 15 13 12 12 12 11 9 6 3 6 7 1 2 2 7 4 6 6 7 5 4 6 6 9 8 8 6 5 5 4 5 3 4 2 6 4 6 7 6 7 6 7 8 7 7
5 6 5 6 4 4 7 3 6 5 2 1 3 5 6 4 7 2 6 5 2 1 1 3 1 0 7 5 6 5 7 9 8 10 11 12 9 10 13 13 13 12 14 14 15 16 17 15 10 7 3 2 3 3 3 6 6 3 3 2 6 7 6 4 1 1 1 1 1 3 4 4 4 7 9 5 6 5 6 7 7 7 7 6 6 5
1 2 5 2 4 9 7 4 2 7 4 3 4 2 9 6 8 3 2 1 5 3 2 2 4 3 3 3 7 6 10 8 8 11 10 9 9 10 11 11 11 11 11 11 12 12 14 14 14 10 8 3 4 1 4 1 2 3 3 3 3 6 4 1 3 4 6 7 5 3 3 2 4 7 9 8 8 7 6 7 7 8 8 7 8 8
4 5 5 3 2 6 4 10 6 7 8 4 2 9 1 4 5 7 5 1 2 4 2 2 6 5 3 2 2 7 8 6 9 10 9 8 8 11 10 10 10 10 10 9 9 9 10 11 12 12 11 9 6 3 4 5 2 1 1 1 0 3 7 4 4 7 7 8 6 4 5 4 4 4 6 6 7 7 8 8 8 8 7 9 7 8
3 3 4 2 5 4 0 4 3 1 2 8 8 3 4 1 2 4 4 1 2 1 1 2 1 1 1 1 2 7 8 6 9 10 10 11 11 10 10 11 10 10 10 10 9 9 10 9 11 11 12 13 9 7 4 3 2 2 2 1 2 6 4 6 7 7 10 12 10 9 8 6 5 5 5 5 6 6 8 10 10 11 11 8 7 8
2 2 4 3 1 1 3 4 5 5 3 2 2 2 1 5 3 3 5 4 6 3 3 1 2 1 1 3 5 6 5 5 9 10 10 10 9 9 8 8 9 10 10 9 9 9 8 9 10 11 11 13 13 12 11 8 4 3 3 4 3 2 1 2 5 6 3 0 3 6 6 6 6 5 4 6 7 7 9 11 11 12 11 11 9 8
2 1 1 2 6 4 3 1 7 8 5 1 0 3 5 1 3 5 0 4 5 4 4 5 1 1 1 2 4 5 5 8 8 9 8 8 10 11 11 10 8 9 8 8 8 9 9 9 9 10 11 11 12 11 11 10 9 7 6 7 6 4 2 5 3 3 1 4 6 8 9 9 7 8 8 11 9 4 3 5 2 7 10 10 10 9
2 1 6 3 6 9 7 9 11 6 5 4 6 2 4 1 1 4 5 4 2 3 3 6 2 1 1 3 6 7 7 8 8 8 9 11 12 11 10 11 10 9 9 9 8 7 7 8 9 10 11 10 11 11 12 10 10 10 10 6 3 2 4 3 3 2 5 5 8 10 9 9 8 8 8 9 5 9 2 4 6 8 9 11 10 10
2 3 4 2 3 6 11 11 9 9 14 12 8 3 1 2 4 4 2 2 5 3 5 4 7 1 2 3 6 9 9 11 11 9 10 11 11 11 10 9 8 9 9 9 8 8 8 7 8 10 12 12 12 10 11 11 11 10 10 11 10 7 5 4 5 4 4 4 4 7 7 8 8 8 9 8 4 9 6 5 7 8 9 10 9 8
5 2 3 0 2 4 6 9 15 13 3 7 8 6 6 3 1 2 2 4 5 2 4 3 4 3 2 6 9 10 11 11 10 11 10 9 9 9 9 8 9 9 9 8 8 9 11 12 11 12 14 13 12 12 12 10 10 10 10 11 9 10 11 10 7 5 5 4 4 3 5 7 8 10 8 6 5 9 4 0 6 7 9 10 9 9
1 2 5 2 2 2 2 3 7 8 8 5 2 4 4 3 2 1 3 2 5 2 3 7 5 4 1 6 8 9 11 12 11 11 10 10 9 8 7 6 7 8 9 12 14 15 15 16 16 15 15 14 13 12 11 11 11 10 10 10 11 10 10 9 9 7 4 4 4 4 4 4 7 7 4 2 7 11 6 5 4 6 6 9 9 8
7 0 1 3 5 5 4 5 2 1 2 1 2 7 8 8 5 2 1 2 3 1 4 4 4 3 8 9 10 10 9 10 10 9 9 9 9 8 8 8 7 8 10 12 14 15 15 13 13 14 14 13 14 13 12 12 11 10 9 9 9 9 11 9 8 4 6 8 7 4 7 6 4 3 4 3 8 12 11 7 4 3 3 8 9 8
2 3 4 3 5 6 3 3 1 3 3 5 3 11 8 4 5 5 5 4 4 2 5 3 6 10 8 9 9 9 10 10 9 10 9 8 9 8 9 9 10 10 11 13 13 12 13 15 16 15 15 13 12 13 12 12 12 12 11 11 10 9 10 8 8 7 6 5 7 5 5 5 7 10 5 4 8 9 8 7 6 4 3 3 6 9
5 7 5 10 10 5 3 5 4 6 10 4 7 6 11 11 6 6 3 2 4 9 4 1 7 7 6 8 8 8 9 9 7 7 8 8 9 9 9 9 12 12 13 12 13 13 13 13 14 15 15 15 14 14 13 12 12 13 12 12 12 11 10 7 8 9 7 7 7 3 4 4 5 8 7 6 6 9 7 6 7 6 3 5 5 7
5 4 1 7 9 10 8 9 12 12 10 9 11 10 11 10 14 10 5 2 1 2 9 8 10 8 5 7 8 8 8 8 8 8 8 7 8 9 9 11 12 12 12 12 12 11 12 12 12 13 14 13 15 15 14 13 13 13 12 11 11 11 12 11 9 10 7 7 9 6 6 6 3 3 8 8 7 6 6 4 7 6 6 7 5 5
6 4 3 8 12 10 10 10 10 15 10 14 11 11 10 12 11 11 11 11 10 9 10 13 13 10 6 6 7 7 7 7 7 6 7 9 10 9 10 11 11 11 12 12 11 11 10 11 11 11 12 13 14 14 14 13 13 13 13 13 12 11 11 11 10 9 9 9 9 9 5 6 5 4 6 9 9 8 6 4 7 9 7 6 7 9
6 0 3 2 7 6 7 9 10 11 14 14 12 11 8 8 11 11 10 9 11 13 11 13 12 8 5 5 7 6 6 7 8 9 10 10 10 10 10 10 11 11 11 11 11 11 11 11 11 11 12 12 12 13 12 11 12 12 12 13 12 12 11 10 10 9 9 9 11 9 7 5 7 4 7 8 9 5 7 5 6 6 3 8 9 11
6 4 2 3 6 3 2 10 9 13 16 15 13 12 10 8 8 8 6 5 4 9 8 9 7 4 4 5 7 7 8 10 10 9 9 8 9 10 10 10 10 10 10 11 11 11 12 12 13 13 12 12 12 12 11 11 10 11 12 12 13 12 11 11 10 10 9 9 9 10 7 5 7 6 5 8 9 8 6 7 7 10 4 9 11 10
2 6 5 4 7 4 5 3 4 5 5 7 7 5 10 10 9 7 9 12 7 2 4 4 4 3 4 4 7 8 9 9 8 9 8 9 9 8 9 9 9 9 9 9 11 11 11 11 11 12 12 10 10 10 10 9 9 10 10 11 10 10 11 10 11 11 12 10 10 11 12 3 9 9 7 8 8 8 7 8 7 9 6 11 10 10
4 7 6 3 5 6 7 5 2 4 4 1 3 4 2 4 7 12 7 8 10 8 4 5 7 5 6 5 7 7 9 9 9 9 9 7 7 7 7 7 8 8 8 9 9 9 8 8 9 9 10 10 9 9 8 8 8 7 7 7 8 10 10 11 11 12 12 13 11 12 11 12 2 8 8 9 9 9 8 9 9 5 5 11 10 12
4 4 3 2 6 6 5 1 4 3 1 1 3 7 10 9 13 15 13 11 9 8 9 8 7 7 7 6 8 9 10 10 9 10 10 8 7 6 7 7 7 8 8 8 9 9 8 8 8 8 10 10 10 9 8 9 9 7 8 9 10 10 11 11 12 12 12 13 13 12 14 11 11 3 7 9 11 10 9 10 8 9 4 9 10 11
2 4 1 4 4 4 3 1 3 2 4 5 4 6 8 8 5 11 11 10 9 7 6 8 8 8 9 8 6 8 10 9 9 9 8 8 7 7 6 6 6 7 8 7 7 8 8 9 9 8 8 7 8 8 9 9 8 8 9 8 9 10 10 11 12 13 12 13 13 14 13 13 12 11 5 9 10 10 10 9 10 10 9 11 10 10
6 4 5 4 3 6 2 3 5 7 5 1 2 1 1 0 1 0 4 4 6 5 3 6 8 7 8 8 9 7 7 7 9 8 8 7 6 5 5 5 5 6 6 6 6 7 7 7 7 8 6 7 8 8 9 8 8 8 9 10 10 10 11 11 13 12 12 12 13 14 14 14 14 12 8 9 12 11 9 10 7 6 10 12 11 11
4 2 2 6 2 2 8 5 4 1 3 3 2 1 2 3 0 2 5 4 4 5 3 5 6 9 9 8 8 8 3 8 7 6 7 8 8 7 6 5 5 5 6 5 5 5 6 5 6 6 7 7 8 8 7 7 7 7 9 10 10 11 10 12 12 12 12 12 11 11 12 14 14 12 10 9 11 11 10 8 8 6 5 11 12 11
6 8 6 8 5 3 4 6 4 5 1 2 1 3 4 5 2 2 2 2 1 3 3 4 5 4 4 6 5 4 1 3 3 4 6 5 6 6 5 6 5 5 5 5 5 6 6 6 5 6 7 8 9 9 8 8 7 8 10 10 10 10 11 11 11 11 11 10 10 10 11 12 14 12 9 9 10 10 12 10 9 7 8 9 10 10
9 5 5 7 4 1 4 3 3 1 2 1 1 3 5 5 1 1 2 2 2 2 4 4 4 3 2 1 0 3 5 7 6 5 3 4 4 5 6 6 7 7 7 6 6 5 4 4 6 7 8 9 8 7 8 7 8 10 10 10 9 11 11 10 9 8 9 9 9 9 10 12 14 13 12 11 11 10 11 9 9 9 8 8 8 9
5 4 6 4 3 5 6 3 3 1 1 1 2 3 5 3 1 2 2 2 2 3 5 5 5 4 3 4 3 6 6 6 7 5 3 4 6 7 7 6 7 7 7 8 7 6 5 6 6 7 7 6 6 6 6 6 8 9 9 9 10 12 10 9 8 8 8 8 9 10 10 10 11 11 12 11 11 10 11 9 9 9 9 8 8 10
4 2 1 3 5 4 1 5 2 1 0 1 2 3 2 2 4 3 3 3 6 6 6 6 8 6 8 9 9 9 9 8 8 6 7 6 5 4 5 6 7 8 8 7 9 8 6 6 6 7 7 6 7 6 6 6 8 8 8 9 11 10 8 8 9 7 7 9 10 10 11 11 11 11 10 11 11 12 11 9 8 8 9 8 6 10
1 2 1 2 0 2 3 4 3 1 1 2 5 2 3 1 1 5 7 7 6 6 6 6 6 7 8 10 10 10 9 8 7 7 6 4 4 4 4 5 6 6 6 7 8 9 7 7 8 8 7 7 6 6 5 6 8 8 8 10 9 8 8 8 9 9 9 9 9 10 10 10 11 11 10 11 11 11 10 9 10 9 8 8 6 7
1 2 1 0 1 4 2 2 2 1 4 4 2 2 2 5 7 7 8 8 6 5 5 5 6 6 8 9 10 8 8 8 6 5 4 3 3 4 4 4 5 5 6 6 6 7 7 7 7 7 6 6 6 5 5 5 6 7 7 9 7 7 8 8 8 8 9 10 10 10 10 9 9 9 8 8 8 9 10 10 9 9 7 6 6 5
6 1 1 5 2 2 2 3 4 3 6 9 10 10 9 9 8 6 7 7 7 6 5 6 8 7 7 8 8 7 7 5 5 3 4 3 3 3 3 3 3 3 4 5 6 7 6 7 8 8 8 7 8 7 5 4 4 5 6 5 5 6 7 7 8 8 8 8 8 8 8 9 9 9 9 9 9 9 8 8 7 8 7 6 5 4
4 9 7 10 10 13 11 8 7 8 10 11 10 9 11 10 8 7 7 8 6 6 5 6 7 7 6 5 8 6 5 5 6 4 3 2 2 1 1 2 2 2 3 3 5 6 5 6 6 7 8 9 9 8 7 6 4 4 3 4 5 5 5 5 6 7 7 7 7 8 7 8 8 8 8 8 8 8 7 7 8 8 7 7 6 5
2 1 2 9 8 4 7 3 9 10 9 10 9 9 9 9 8 6 8 8 8 7 7 6 6 5 6 5 6 6 6 6 5 4 4 3 2 2 1 0 0 1 1 3 3 3 5 5 6 7 7 7 8 8 7 7 6 3 3 4 4 4 4 4 5 5 6 6 6 6 7 8 7 7 8 8 6 7 7 7 6 7 7 7 6 6
3 1 8 4 6 6 8 8 7 7 7 7 8 10 10 9 8 7 7 8 8 8 8 7 6 6 5 6 6 6 5 3 4 3 3 2 3 2 2 1 2 1 2 2 2 2 2 3 3 5 6 6 7 6 7 7 6 7 5 3 3 4 5 5 5 5 5 5 4 4 4 5 7 7 6 7 7 8 7 7 6 8 7 6 5 5
5 3 4 3 8 7 10 7 7 8 8 6 6 5 6 7 8 8 7 7 6 7 5 5 6 7 5 5 4 5 4 4 4 4 3 2 1 0 2 2 2 3 2 2 2 2 2 1 2 3 4 5 4 5 6 6 6 6 7 5 4 3 4 6 6 6 6 5 5 4 2 4 4 4 5 5 7 7 6 5 5 6 6 6 4 3
8 8 8 11 14 8 5 9 9 9 5 3 5 7 7 6 8 8 6 6 5 6 5 5 3 2 4 4 5 4 5 3 3 4 4 3 3 2 2 2 3 3 4 4 3 3 3 2 2 2 2 3 3 4 4 5 5 5 4 4 4 4 4 4 5 6 7 6 6 4 1 1 3 3 4 4 5 6 6 7 8 6 6 5 7 10
6 9 5 6 7 8 9 13 4 7 10 8 8 6 7 6 7 8 8 7 6 6 6 6 4 2 1 2 2 5 4 4 4 3 3 3 4 4 4 3 3 3 3 4 3 4 4 4 3 3 3 4 4 4 4 4 4 5 5 4 3 2 3 4 5 5 5 6 6 6 4 3 2 4 4 4 4 3 5 5 6 9 10 8 7 9
Wind_Direction
130 166 184 206 215 214 222 177 189 228 211 247 302 25 289 295 285 262 266 270 195 143 177 174 179 203 269 271 276 277 81 117 134 216 271 196 180 188 189 184 175 177 181 174 167 153 153 150 149 157 164 167 167 165 162 158 158 157 154 147 139 131 138 134 69 18 167 175 167 154 175 173 161 164 141 143 161 170 158 157 160 155 158 163 163 167
92 185 234 217 209 196 210 203 214 251 255 229 256 298 289 280 285 283 292 308 193 116 224 193 155 216 254 274 243 182 36 86 152 164 186 206 198 192 184 177 183 168 132 140 146 147 146 150 157 160 168 169 165 171 160 158 158 157 151 150 131 133 141 126 145 188 193 159 173 171 159 109 67 56 134 170 179 171 160 164 165 161 164 167 170 173
163 204 231 222 208 200 217 206 204 199 241 245 213 242 287 273 264 283 299 334 352 84 199 113 129 216 230 252 300 299 198 267 166 171 182 189 200 200 191 188 160 146 164 163 161 153 154 155 161 163 171 176 166 162 167 162 151 150 149 146 132 134 136 138 159 173 162 146 161 169 145 144 158 165 154 155 236 219 172 172 171 168 168 169 174 178
212 263 237 223 185 190 239 227 220 238 247 235 254 222 244 254 39 300 302 7 360 63 186 181 126 285 314 313 307 286 22 315 349 228 200 184 184 194 196 183 169 168 164 170 170 167 164 165 166 164 170 177 172 165 168 161 154 146 144 146 137 137 139 149 169 170 120 92 55 358 84 142 145 168 159 135 163 204 178 182 183 181 171 177 176 178
216 228 216 197 193 182 215 238 192 189 257 248 201 185 234 257 229 190 269 2 339 358 87 71 33 341 340 347 333 319 11 31 10 45 42 306 332 335 337 16 187 171 170 163 165 163 169 175 177 176 175 169 171 172 165 159 149 151 155 141 138 142 149 161 173 160 119 113 145 147 108 96 75 56 120 135 169 196 189 179 187 193 180 178 170 176
266 249 125 176 213 205 203 249 225 164 227 283 235 188 201 200 226 274 340 41 28 347 330 116 37 301 298 317 268 308 25 37 14 36 20 8 285 190 171 164 85 42 17 179 177 174 177 177 171 171 166 172 178 173 158 142 145 143 136 134 138 141 148 161 171 155 143 150 161 158 150 171 163 176 199 188 186 192 191 191 184 181 183 175 166 180
229 204 170 198 201 217 214 221 225 154 194 181 247 205 202 234 279 302 327 72 70 141 302 65 134 252 326 322 339 16 52 41 30 33 13 9 12 3 307 180 154 145 146 134 138 165 174 186 181 177 180 182 172 157 140 134 131 128 126 140 146 151 157 164 168 161 156 161 168 170 178 179 180 187 202 191 182 182 188 157 179 187 182 177 170 187
204 190 199 207 199 211 218 236 222 167 147 211 236 174 135 330 299 283 225 120 211 264 309 20 115 145 340 309 337 60 59 38 29 17 16 15 11 5 8 331 145 153 152 157 170 176 179 181 181 184 193 150 148 145 145 144 139 144 147 152 160 162 163 177 175 171 171 168 174 171 181 184 179 195 195 180 165 157 160 186 188 183 189 184 175 182
172 218 189 199 206 194 206 220 202 171 161 208 235 180 203 223 241 283 11 144 174 105 296 314 350 62 272 302 333 34 58 29 28 10 10 13 10 13 21 23 29 63 100 132 160 172 163 89 49 38 36 39 37 69 150 153 153 157 161 162 165 168 166 178 180 178 184 179 177 174 170 179 201 204 196 155 152 156 173 190 199 191 195 187 180 181
248 202 209 190 160 199 216 227 178 167 131 258 186 147 177 133 55 14 64 76 355 71 265 276 277 114 294 326 356 352 59 43 9 8 12 13 22 17 21 26 40 44 40 35 34 30 30 41 44 53 51 44 89 131 148 153 161 173 179 170 165 165 171 178 180 181 187 184 176 175 179 186 186 196 209 179 164 164 174 182 191 196 192 190 183 187
247 282 177 140 191 201 197 202 163 159 184 164 100 79 28 36 38 17 61 81 53 31 256 238 4 120 56 353 344 17 13 26 48 37 18 18 23 25 26 31 33 35 38 39 37 34 35 42 51 60 60 23 357 337 156 158 169 181 187 177 165 163 169 181 184 185 187 185 182 184 183 186 182 185 189 184 181 169 173 185 187 186 189 187 187 186
282 267 270 219 187 173 141 173 243 152 140 110 131 191 355 329 11 31 343 39 89 290 263 269 112 85 127 336 10 39 46 44 60 53 32 23 22 19 24 28 28 30 34 34 35 27 23 30 30 38 46 48 23 11 353 69 80 219 197 179 172 171 173 183 191 191 188 186 189 189 185 189 188 181 192 186 185 182 184 181 185 174 111 102 283 194
307 261 235 285 246 142 130 98 317 43 28 90 77 57 129 251 47 249 18 279 150 182 251 290 152 47 51 106 79 65 62 58 54 56 47 33 21 18 20 23 27 28 28 29 27 26 21 28 32 47 46 38 60 82 38 3 203 227 204 183 178 182 178 180 188 194 190 187 191 192 190 195 193 189 199 188 193 184 183 180 178 145 161 175 204 219
278 274 257 257 320 219 128 132 130 148 26 111 147 142 131 125 60 186 276 195 308 291 250 184 110 86 157 85 51 76 68 66 62 56 50 49 41 32 27 28 31 33 33 28 26 25 23 17 26 55 75 58 47 72 102 206 218 211 195 231 194 192 188 178 180 183 188 201 200 199 197 196 192 195 202 199 191 194 185 178 176 163 166 181 196 183
202 337 304 187 212 282 125 144 169 174 161 191 155 140 173 140 158 190 184 168 208 215 286 310 97 204 133 181 78 90 85 68 59 60 57 56 54 49 39 31 28 28 28 25 23 20 17 17 22 38 94 101 25 33 177 242 293 7 13 349 306 227 209 195 186 180 184 190 200 210 215 202 173 115 22 291 230 188 185 182 170 166 163 176 178 173
185 201 253 200 186 162 151 182 141 104 90 244 144 77 83 218 139 145 202 144 207 172 22 15 96 184 103 156 100 95 81 65 60 59 58 54 48 49 50 45 39 32 25 20 19 16 15 13 9 12 37 144 172 167 298 314 321 352 27 25 5 341 1 360 335 341 41 38 262 227 208 196 153 150 173 211 270 214 188 180 173 167 173 166 152 168
97 300 259 271 124 168 181 144 207 123 178 257 103 183 213 165 130 127 36 94 91 43 260 161 69 48 118 65 61 52 63 54 65 68 58 52 47 50 55 51 48 44 38 31 22 15 8 8 8 3 352 310 246 192 186 220 306 343 17 33 56 57 52 311 49 74 63 32 1 310 289 228 183 174 188 196 211 200 201 183 177 169 171 157 163 169
139 237 295 132 189 247 190 169 161 170 144 94 136 235 71 112 110 128 189 353 101 162 245 56 139 167 152 183 25 29 49 42 63 73 72 62 50 53 50 50 47 44 41 33 31 24 18 8 4 2 0 6 26 55 58 55 322 319 68 94 225 181 192 176 119 120 135 154 180 230 262 267 239 217 189 193 213 205 190 188 176 163 158 169 167 158
147 297 301 238 163 202 316 77 22 328 110 150 185 197 107 226 244 318 100 134 99 199 227 21 48 61 109 246 357 31 38 34 59 61 62 58 51 50 53 51 48 45 35 22 16 19 16 11 2 1 7 3 10 21 19 88 304 340 318 239 192 233 185 169 180 192 188 187 181 177 188 210 225 229 209 207 213 220 200 191 173 166 169 160 159 148
66 138 293 318 33 179 92 99 193 249 320 309 69 139 196 101 155 131 200 176 120 218 90 315 62 211 346 345 30 43 35 33 61 58 55 54 52 46 41 39 37 34 27 12 9 11 5 9 1 359 5 9 7 12 18 13 345 311 288 281 272 313 355 243 224 220 245 55 152 170 178 198 210 205 197 243 230 219 204 204 176 169 158 160 155 152
255 108 214 274 308 80 7 224 205 176 180 231 117 332 356 289 217 117 92 128 174 177 167 151 98 272 269 357 57 70 62 62 64 69 61 54 56 58 50 41 40 36 20 6 1 2 1 359 355 355 5 11 9 14 16 10 4 340 319 314 332 1 303 269 273 330 344 167 191 183 187 195 199 209 201 212 221 243 24 358 285 190 162 148 153 152
90 89 200 300 45 78 86 33 49 50 95 124 128 137 190 249 140 156 243 354 76 108 175 128 202 251 46 54 76 64 51 65 65 71 63 52 50 51 45 39 34 32 19 6 357 352 357 359 356 0 11 15 16 9 9 5 4 1 355 336 304 277 269 268 266 264 259 214 188 190 190 193 196 208 218 217 198 77 98 220 233 215 163 154 152 151
139 151 96 75 141 101 97 71 49 63 75 77 72 19 71 125 97 87 131 260 42 59 96 110 116 203 341 118 85 75 60 51 32 37 64 57 49 45 39 33 29 26 18 2 354 352 357 16 11 8 14 14 12 7 6 8 8 2 357 359 348 325 292 262 264 232 221 252 234 202 194 192 199 205 214 217 148 136 186 211 233 215 174 149 150 148
78 69 78 331 14 77 69 65 56 33 40 43 30 23 30 26 309 165 169 185 114 342 58 38 68 232 247 94 79 73 65 57 42 30 46 54 47 40 34 27 22 16 10 4 0 5 3 1 12 16 12 11 7 3 4 5 5 360 1 357 348 348 343 334 318 262 227 218 245 249 208 199 204 208 209 204 129 137 191 315 246 223 173 144 141 145
82 313 115 96 54 23 353 346 20 352 39 74 45 342 343 329 46 145 101 35 82 339 168 113 156 228 3 74 74 70 64 55 44 37 36 48 43 31 26 26 21 13 6 8 14 11 5 5 7 7 4 3 3 1 359 1 6 6 0 354 346 339 336 337 333 335 285 257 233 209 219 212 211 215 221 181 121 139 163 164 240 264 182 138 144 144
89 45 77 139 167 172 164 163 251 324 18 343 46 352 10 22 344 27 249 5 90 329 78 103 136 126 117 80 66 59 59 56 47 40 43 44 40 28 18 18 22 22 19 18 17 14 9 3 0 4 6 2 360 358 356 357 360 360 356 354 346 335 335 341 337 335 250 237 247 217 206 210 198 229 240 151 139 148 164 171 175 224 262 150 144 141
96 57 65 122 136 148 176 182 240 111 43 63 8 31 356 354 11 95 98 82 146 151 75 335 136 124 78 61 57 53 52 49 37 32 32 35 36 35 26 21 19 21 22 20 19 13 8 5 1 360 3 4 3 359 356 354 355 354 353 347 346 342 336 337 323 274 260 256 244 216 205 190 171 200 198 147 146 147 157 161 149 154 176 226 158 147
62 60 9 68 57 101 119 74 57 93 98 71 65 29 28 27 7 52 81 148 167 101 33 27 108 100 75 62 57 55 57 58 47 37 33 35 37 34 31 24 21 22 22 23 20 17 14 5 0 0 0 2 3 0 0 357 355 353 350 347 345 346 346 334 321 296 288 280 260 164 190 202 195 181 147 156 150 146 145 143 155 149 170 204 192 148
116 112 314 68 65 77 72 90 90 73 67 77 65 51 47 39 46 58 29 339 104 149 159 135 101 92 85 65 62 54 56 62 54 42 40 44 42 40 37 36 30 25 20 21 21 18 15 10 4 2 1 360 2 3 0 358 354 352 347 347 344 347 348 341 334 347 322 273 271 253 185 186 195 180 156 155 136 148 142 150 149 136 156 199 169 109
92 48 50 92 93 81 82 74 83 96 83 59 50 56 51 52 45 49 55 53 69 67 92 105 93 86 80 70 64 62 59 66 62 48 46 45 41 39 39 40 38 31 24 20 18 16 13 10 10 9 5 5 3 2 1 359 355 351 349 347 344 346 351 346 344 345 356 337 285 261 227 181 191 179 162 150 149 145 130 170 146 151 201 177 128 116
109 342 215 94 81 75 86 85 81 85 84 70 42 38 43 55 52 32 44 33 69 76 79 86 92 87 61 68 77 69 68 72 68 57 50 42 36 34 36 37 38 37 29 25 18 15 13 10 11 12 12 8 4 4 1 358 352 348 353 352 348 348 347 353 350 350 355 344 334 292 242 213 186 156 156 161 149 145 131 158 162 129 200 135 121 112
69 156 154 100 98 96 54 99 102 94 84 72 43 31 26 36 48 12 42 359 45 110 114 95 75 93 105 83 79 71 68 60 60 60 56 46 40 36 33 29 25 22 26 27 22 19 17 14 11 11 9 6 6 5 3 356 349 358 359 351 353 346 345 358 5 359 349 342 339 349 292 198 173 170 155 145 143 129 121 129 141 125 202 120 110 103
96 127 115 107 96 123 173 100 129 95 68 44 14 25 78 80 102 77 44 35 31 35 47 78 101 95 122 107 90 69 67 72 66 56 63 59 49 43 38 29 19 19 9 17 25 24 21 17 12 8 4 4 3 359 357 355 3 6 355 354 348 346 355 359 9 9 2 352 354 358 354 289 160 163 153 137 132 122 125 124 122 127 145 111 113 106
92 121 137 149 105 133 172 190 313 50 62 350 330 306 210 123 101 73 46 49 41 47 77 82 107 96 97 88 84 80 66 61 62 58 55 56 53 39 32 24 21 16 9 15 17 23 19 18 17 11 6 1 357 358 351 2 8 3 359 356 357 5 2 6 6 17 11 5 360 2 7 342 152 145 142 129 125 121 124 122 122 114 134 116 109 105
102 88 121 117 108 141 173 100 58 68 136 49 12 69 85 96 90 87 67 50 66 96 97 91 92 106 103 98 93 79 80 76 69 66 57 52 55 52 41 32 26 24 22 15 12 11 9 10 9 10 10 4 358 354 356 7 7 355 10 12 16 13 15 12 15 14 17 14 6 12 10 4 358 28 114 116 116 112 110 105 100 107 102 97 108 107
84 93 131 50 103 68 61 31 127 184 122 138 116 103 112 106 104 77 60 47 36 45 96 114 124 124 125 119 102 102 100 92 75 56 54 51 51 52 46 38 28 34 36 23 22 16 15 11 6 4 3 355 354 359 1 2 354 7 15 11 22 20 20 19 22 20 14 17 15 16 19 12 12 356 32 87 91 97 99 99 112 117 109 100 90 87
118 87 78 81 16 125 94 56 80 117 129 150 103 31 62 24 307 238 111 40 33 4 42 125 134 138 137 130 127 129 121 97 70 46 26 27 26 36 44 44 36 40 41 35 33 34 26 20 19 7 2 360 2 3 3 352 355 7 16 20 19 20 22 22 26 20 14 19 17 22 22 21 18 3 349 77 89 87 81 94 79 100 112 101 95 94
62 102 199 104 9 87 128 104 116 135 192 180 179 305 7 335 41 106 105 115 32 7 8 112 130 146 162 156 165 163 141 64 56 49 25 23 20 27 28 27 33 39 37 25 23 26 23 23 23 20 16 8 9 7 358 355 355 9 23 23 18 20 19 22 23 15 16 16 14 22 28 29 25 13 345 48 74 85 81 73 73 43 58 99 105 96
36 75 101 105 131 89 107 124 152 181 165 118 146 306 324 330 271 186 70 110 46 354 14 102 104 108 131 176 205 211 219 84 96 68 49 21 26 23 41 35 36 38 34 29 24 19 10 12 17 18 22 21 18 3 360 357 4 17 28 24 20 18 22 20 11 9 11 7 6 17 36 37 34 17 4 34 61 69 81 70 72 70 74 81 86 92
40 1 35 64 88 99 129 100 144 56 184 162 282 301 319 327 300 128 167 199 126 25 57 79 91 112 128 122 176 126 144 132 133 104 76 44 33 22 23 25 25 23 20 14 12 10 8 7 20 27 27 25 15 4 2 1 13 27 26 23 19 24 20 11 5 2 6 13 13 12 37 46 46 28 17 26 45 59 65 72 74 70 74 78 84 89
5 352 43 124 113 87 92 94 90 61 342 220 308 300 309 294 87 160 218 106 128 83 75 76 75 59 94 93 104 87 48 78 106 118 93 67 50 35 25 26 34 25 24 16 7 355 9 9 14 19 17 7 4 6 8 8 25 28 23 20 26 24 14 0 357 8 15 20 25 28 26 43 51 40 25 19 30 40 57 57 66 70 69 73 86 91
21 44 9 64 64 95 89 83 103 62 60 334 281 279 296 97 171 208 101 106 105 94 90 101 99 89 86 87 93 97 106 101 96 86 78 67 64 50 33 26 23 24 21 20 16 14 12 14 14 10 4 358 351 357 4 14 34 33 25 22 24 16 6 7 6 4 16 27 28 30 32 31 42 46 38 31 28 31 35 35 45 56 67 65 72 92
235 79 101 88 287 72 56 88 81 149 153 350 303 328 12 154 110 111 108 81 85 88 89 78 85 88 95 97 93 101 108 107 102 100 100 91 76 55 40 29 25 23 16 17 18 11 10 12 13 9 0 344 351 350 353 11 33 32 30 30 17 7 9 10 16 18 20 29 34 33 32 31 33 42 37 38 39 43 40 31 33 32 40 67 73 86
258 110 114 45 229 121 97 90 152 296 317 327 138 123 346 77 123 119 118 101 88 89 89 97 81 87 92 101 107 103 102 106 104 109 99 80 65 57 44 34 29 21 18 18 20 12 10 17 8 2 354 351 344 350 356 18 31 24 27 21 355 15 15 12 12 19 25 25 27 32 34 35 34 36 45 44 41 45 46 40 37 39 33 41 62 66
332 167 247 121 319 118 128 105 96 46 57 49 82 97 96 96 94 96 93 104 111 104 105 101 101 95 94 100 99 104 102 97 105 102 96 88 76 52 49 43 28 23 19 19 13 4 10 11 6 357 353 350 351 347 355 357 29 21 18 350 347 357 14 13 13 18 21 22 24 30 31 33 34 32 34 37 39 41 42 49 47 46 34 50 65 94
108 102 100 83 75 82 61 77 97 83 82 80 74 90 100 100 90 89 96 102 96 99 112 114 118 115 112 110 112 103 109 121 112 116 111 106 96 73 35 25 16 13 8 11 8 2 359 1 358 1 1 356 354 345 346 356 4 15 346 328 341 335 338 358 10 10 9 10 11 17 31 39 32 32 32 42 41 44 40 35 36 43 39 45 48 68
359 44 37 109 171 105 89 95 103 108 104 100 96 94 95 94 101 107 105 102 105 102 94 94 100 101 101 101 95 106 117 128 127 130 139 142 142 146 160 212 310 303 325 354 344 357 6 6 359 360 358 357 352 352 349 346 349 336 320 355 351 353 354 353 356 4 4 9 9 8 22 39 33 31 24 22 43 53 43 35 37 48 44 39 45 53
35 85 81 78 87 77 121 132 115 111 110 116 120 115 109 112 116 117 113 113 116 115 118 116 111 105 120 123 138 134 137 132 124 136 136 165 175 187 214 241 277 324 323 306 312 350 2 14 3 354 350 352 345 353 358 1 355 357 348 319 344 349 4 7 0 0 9 13 15 10 18 38 45 53 47 30 27 30 36 36 43 56 45 30 19 62
150 185 77 151 97 95 108 106 111 97 84 87 92 94 111 126 123 118 118 118 118 119 123 128 137 150 143 146 138 135 136 162 161 170 172 197 206 246 247 256 266 271 283 309 313 322 316 315 349 343 342 339 334 350 4 359 351 0 17 351 307 326 9 358 349 356 3 12 31 26 14 54 47 50 66 64 51 45 35 33 39 63 66 38 8 347
81 88 114 116 114 134 156 152 158 118 129 127 128 137 135 131 126 123 117 115 124 128 131 126 110 92 135 155 152 143 149 182 195 165 178 201 199 222 245 273 280 280 285 278 276 282 290 287 289 318 308 303 327 343 359 354 345 347 10 8 346 338 348 348 358 2 357 358 13 13 43 91 77 85 70 72 86 82 60 48 58 39 72 66 34 48
116 144 135 125 134 142 155 162 182 130 132 147 149 150 139 139 130 133 140 145 152 153 146 138 129 109 166 224 180 146 169 174 211 190 195 223 237 225 218 227 248 261 277 278 285 291 282 278 283 299 314 304 318 326 333 337 328 341 356 4 355 8 11 3 3 11 8 11 11 2 8 93 79 52 55 51 37 33 82 76 44 53 55 58 63 64